カタログに戻る

SL-12 R/B(2)

運用中GEO
NORAD 14943·ROCKET BODY·🇷🇺 Russia

打ち上げ Apr 22, 1984 から Baikonur Cosmodrome

Loading…

TLE

最新Source: Space-Track

元期: Sep 14, 2026, 21:24 UTC

1 14943U 84041D   26257.89166728 -.00000257  00000-0  00000-0 0  9992
2 14943   9.4330 314.5165 0014840 228.9858 290.1077  0.98629905122162

AllMySatでSL-12 R/B(2)をリアルタイム追跡

Download on the App Store